Weather History for KTMK - January, 2013

Change the Weather History Date:

Friday, January 25, 2013

  Actual Average (KMMV) Record (KMMV)
Temperature  
Mean Temperature 45 °F 42 °F  
Max Temperature 51 °F 49 °F 60 °F (1993)
Min Temperature 37 °F 35 °F 4 °F (1930)
Degree Days  
Heating Degree Days 20 23  
Month to date heating degree days 610  
Since 1 July heating degree days 2615  
Cooling Degree Days 0 0  
Month to date cooling degree days 0  
Year to date cooling degree days 0  
Moisture  
Dew Point 46 °F    
Average Humidity 94    
Maximum Humidity 100    
Minimum Humidity 82    
Precipitation  
Precipitation 0.01 in 0.18 in 2.28 in (1971)
Month to date precipitation 5.09  
Year to date precipitation 5.09  
Sea Level Pressure  
Sea Level Pressure 30.04 in    
Wind  
Wind Speed 6 mph (South)    
Max Wind Speed 13 mph    
Max Gust Speed -    
Visibility 6 miles    
Events Fog , Rain    
T = Trace of Precipitation, MM = Missing Value Source: NWS Daily Summary

Daily Weather History Graph

Daily Weather History Graph

Search for Another Location

Airport or City:

Trip Planner

Search our weather history database for the weather conditions in past years. The results will help you decide how hot, cold, wet, or windy it might be!

Date:

Astronomy

Jan. 25, 2013 Rise Set
Actual Time 8:43 AM MST 6:12 PM MST
Civil Twilight 8:11 AM MST 6:44 PM MST
Nautical Twilight 7:35 AM MST 7:20 PM MST
Astronomical Twilight 7:00 AM MST 7:55 PM MST
Moon 5:15 PM MST (1/25) 7:26 AM MST (1/25)
Length of Visible Light 10h 33m
Length of Day
9h 29m
Waxing Gibbous, 98% of the Moon is Illuminated
Jan 25
Waxing Gibbous
Jan 26
Full
Feb 3
Last Quarter
Feb 10
New
Feb 17
First Quarter

Hourly Weather History & Observations

Time (MST) Temp. Windchill Dew Point Humidity Pressure Visibility Wind Dir Wind Speed Gust Speed Precip Events Conditions
12:15 AM 46.4 °F - 46.4 °F 100% 30.12 in 3.0 mi Calm Calm - N/A   Drizzle
12:35 AM 48.2 °F - 48.2 °F 100% 30.11 in 3.0 mi SSE 8.1 mph - N/A   Drizzle
12:55 AM 48.2 °F - 48.2 °F 100% 30.11 in 5.0 mi South 10.4 mph - N/A   Overcast
1:15 AM 48.2 °F - 46.4 °F 93% 30.11 in 5.0 mi SSE 9.2 mph - N/A   Drizzle
1:35 AM 48.2 °F - 46.4 °F 93% 30.11 in 5.0 mi SSE 6.9 mph - N/A   Light Drizzle
1:55 AM 48.2 °F - 46.4 °F 93% 30.10 in 4.0 mi South 11.5 mph - N/A   Light Drizzle
2:15 AM 50.0 °F - 46.4 °F 87% 30.10 in 5.0 mi South 9.2 mph - N/A Rain Light Rain
2:35 AM 50.0 °F - 46.4 °F 87% 30.09 in 7.0 mi South 12.7 mph - N/A   Overcast
2:55 AM 50.0 °F - 46.4 °F 87% 30.09 in 10.0 mi South 12.7 mph - N/A   Overcast
3:15 AM 50.0 °F - 48.2 °F 94% 30.09 in 5.0 mi South 10.4 mph - N/A   Overcast
3:35 AM 50.0 °F - 48.2 °F 94% 30.10 in 4.0 mi South 9.2 mph - N/A   Light Drizzle
3:55 AM 50.0 °F - 48.2 °F 94% 30.09 in 4.0 mi South 9.2 mph - N/A   Overcast
4:15 AM 50.0 °F - 48.2 °F 94% 30.09 in 5.0 mi South 3.5 mph - N/A   Light Drizzle
4:35 AM 50.0 °F - 48.2 °F 94% 30.08 in 4.0 mi South 5.8 mph - N/A   Light Drizzle
4:55 AM 50.0 °F - 48.2 °F 94% 30.08 in 4.0 mi South 6.9 mph - N/A   Overcast
5:15 AM 50.0 °F - 48.2 °F 94% 30.08 in 4.0 mi South 6.9 mph - N/A Rain Light Rain
5:35 AM 50.0 °F - 48.2 °F 94% 30.08 in 4.0 mi South 6.9 mph - N/A   Light Drizzle
5:55 AM 50.0 °F - 48.2 °F 94% 30.08 in 3.0 mi South 8.1 mph - N/A Rain Light Rain
6:35 AM 50.0 °F - 48.2 °F 94% 30.08 in 3.0 mi South 6.9 mph - N/A   Light Drizzle
6:55 AM 50.0 °F - 48.2 °F 94% 30.07 in 2.5 mi South 8.1 mph - N/A   Drizzle
7:15 AM 50.0 °F - 48.2 °F 94% 30.07 in 5.0 mi South 5.8 mph - N/A   Light Drizzle
7:35 AM 50.0 °F - 48.2 °F 94% 30.06 in 4.0 mi South 6.9 mph - N/A   Overcast
7:55 AM 50.0 °F - 48.2 °F 94% 30.06 in 3.0 mi SSE 5.8 mph - N/A   Light Drizzle
8:15 AM 50.0 °F - 50.0 °F 100% 30.06 in 2.5 mi SSE 6.9 mph - N/A   Light Drizzle
8:35 AM 50.0 °F - 50.0 °F 100% 30.06 in 4.0 mi South 6.9 mph - N/A   Overcast
8:55 AM 50.0 °F - 50.0 °F 100% 30.06 in 1.8 mi South 5.8 mph - N/A   Overcast
9:15 AM 50.0 °F - 50.0 °F 100% 30.06 in 2.0 mi SSE 5.8 mph - N/A   Light Drizzle
9:35 AM 50.0 °F - 50.0 °F 100% 30.06 in 2.0 mi SSE 4.6 mph - N/A Rain Light Rain
9:55 AM 50.0 °F - 50.0 °F 100% 30.06 in 2.0 mi SSE 5.8 mph - N/A   Overcast
10:15 AM 50.0 °F - 50.0 °F 100% 30.06 in 2.5 mi South 5.8 mph - N/A   Overcast
10:35 AM 50.0 °F - 50.0 °F 100% 30.06 in 1.8 mi SSE 6.9 mph - N/A   Overcast
10:55 AM 50.0 °F - 50.0 °F 100% 30.06 in 2.0 mi SSE 5.8 mph - N/A   Overcast
11:15 AM 51.8 °F - 51.8 °F 100% 30.06 in 4.0 mi South 8.1 mph - N/A   Overcast
11:35 AM 51.8 °F - 50.0 °F 94% 30.06 in 1.5 mi SSW 4.6 mph - N/A   Overcast
12:15 PM 50.0 °F - 50.0 °F 100% 30.06 in 4.0 mi WSW 8.1 mph - N/A   Overcast
12:35 PM 51.8 °F - 51.8 °F 100% 30.05 in 3.0 mi WSW 6.9 mph - N/A   Overcast
12:55 PM 50.0 °F - 48.2 °F 94% 30.05 in 10.0 mi WSW 8.1 mph - N/A   Overcast
1:15 PM 50.0 °F - 48.2 °F 94% 30.04 in 2.0 mi West 6.9 mph - N/A   Drizzle
1:35 PM 50.0 °F - 48.2 °F 94% 30.04 in 10.0 mi West 5.8 mph - N/A   Overcast
1:55 PM 50.0 °F - 48.2 °F 94% 30.03 in 10.0 mi West 4.6 mph - N/A   Overcast
2:15 PM 51.8 °F - 48.2 °F 88% 30.03 in 10.0 mi Calm Calm - N/A   Overcast
2:35 PM 51.8 °F - 46.4 °F 82% 30.03 in 10.0 mi SW 9.2 mph - N/A   Overcast
2:55 PM 51.8 °F - 46.4 °F 82% 30.02 in 10.0 mi WSW 9.2 mph - N/A   Overcast
3:15 PM 51.8 °F - 48.2 °F 88% 30.02 in 10.0 mi West 5.8 mph - N/A   Mostly Cloudy
3:35 PM 51.8 °F - 48.2 °F 88% 30.01 in 10.0 mi West 5.8 mph - 0.01 in   Mostly Cloudy
3:55 PM 51.8 °F - 46.4 °F 82% 30.02 in 10.0 mi SW 5.8 mph - 0.01 in   Overcast
4:15 PM 51.8 °F - 46.4 °F 82% 30.01 in 10.0 mi SSW 8.1 mph - N/A   Mostly Cloudy
4:35 PM 50.0 °F - 44.6 °F 82% 30.02 in 10.0 mi SW 5.8 mph - N/A   Scattered Clouds
4:55 PM 50.0 °F - 44.6 °F 82% 30.02 in 10.0 mi WSW 6.9 mph - N/A   Mostly Cloudy
5:15 PM 50.0 °F - 44.6 °F 82% 30.02 in 10.0 mi SW 4.6 mph - N/A   Overcast
5:35 PM 48.2 °F - 44.6 °F 87% 30.02 in 10.0 mi SW 5.8 mph - N/A   Overcast
5:55 PM 48.2 °F - 42.8 °F 82% 30.01 in 10.0 mi SW 4.6 mph - N/A   Overcast
6:15 PM 48.2 °F - 42.8 °F 82% 30.00 in 10.0 mi Calm Calm - N/A   Scattered Clouds
6:35 PM 48.2 °F - 44.6 °F 87% 30.00 in 10.0 mi Calm Calm - N/A   Mostly Cloudy
6:55 PM 44.6 °F - 42.8 °F 93% 30.00 in 10.0 mi Calm Calm - N/A   Overcast
7:15 PM 44.6 °F - 42.8 °F 93% 30.00 in 10.0 mi Calm Calm - N/A   Scattered Clouds
7:35 PM 44.6 °F - 42.8 °F 93% 29.99 in 7.0 mi Calm Calm - N/A   Clear
7:55 PM 44.6 °F 43.1 °F 42.8 °F 93% 29.99 in 10.0 mi SSE 3.5 mph - N/A   Mostly Cloudy
8:15 PM 42.8 °F 41.1 °F 41.0 °F 93% 29.99 in 1.8 mi South 3.5 mph - N/A   Mostly Cloudy
8:35 PM 41.0 °F - 39.2 °F 93% 29.99 in 1.5 mi Calm Calm - N/A   Mostly Cloudy
8:55 PM 41.0 °F - 41.0 °F 100% 29.98 in 1.0 mi Calm Calm - N/A   Mostly Cloudy
9:15 PM 41.0 °F - 41.0 °F 100% 29.98 in 1.2 mi Calm Calm - N/A   Mostly Cloudy
9:35 PM 39.2 °F 37.0 °F 39.2 °F 100% 29.98 in 2.0 mi SSW 3.5 mph - N/A   Mostly Cloudy
9:55 PM 39.2 °F - 39.2 °F 100% 29.98 in 0.5 mi Calm Calm - N/A Fog Fog
10:15 PM 39.2 °F - 39.2 °F 100% 29.97 in 1.8 mi Calm Calm - N/A   Mostly Cloudy
10:35 PM 39.2 °F 35.9 °F 39.2 °F 100% 29.97 in 1.8 mi NE 4.6 mph - N/A   Overcast
10:55 PM 39.2 °F - 39.2 °F 100% 29.97 in 10.0 mi Calm Calm - N/A   Overcast
11:15 PM 39.2 °F - 39.2 °F 100% 29.96 in 7.0 mi Calm Calm - N/A   Mostly Cloudy
11:35 PM 39.2 °F - 39.2 °F 100% 29.96 in 7.0 mi Calm Calm - N/A   Scattered Clouds
11:55 PM 37.4 °F - 37.4 °F 100% 29.96 in 5.0 mi Calm Calm - N/A   Overcast